STARLINK-31942, 59899

Orbit data source: Space-Track

STARLINK-31942, 59899 is a payload satellite owned by SpaceX/Seattle (US) in LEO that was launched on Tue, 28 May 2024 UTC via an FALCON 9 launch vehicle from the Air Force Eastern Test Range (AFETR). Payload-class satellites include a variety of spacecraft equipped with specific instruments for various scientific and technological missions. These include communications satellites like Starlink; space stations such as the ISS; scientific satellites like the Hubble; Earth observation satellites from companies like Planet Labs, Umbra, and HawkEye 360; GPS; miniature CubeSats for education and research; and military/defense satellites.

Loading next visibility...
Identifier
59899, 2024-100Q
Orbit
LEO
Country
Flag of USUS
Related business
Manufacturer
SpaceX/Seattle
Mission
Operational Commercial Communications
Bus & Motor
STARLINK V2M, Unknown motor
Mass
730 kg wet, ~700 kg dry
Launch date (UTC)
2024-05-28 (2 years ago)
Launch vehicle
FALCON 9
Launch site
Air Force Eastern Test Range (AFETR)
Object type
Payload
Rocket body
Debris
Shape & HBR
Box + 2 Pan, 17.7 m
Radar Cross Section
33.884 m², Large (>1 m²)

Expand to show TLE details & history
Last TLE update: 12 hours ago

TLE from 12 hours ago
0 STARLINK-31942
1 59899U 24100Q   26126.13143709  .00000681  00000-0  34248-4 0  9992
2 59899  43.0034 160.8392 0002488 274.8773  85.1795 15.27637061109930
Epoch: 2026-05-06T03:09Z
TLE epoch observation values (Epoch: 2026-05-06T03:09:16.164Z)
Latitude
Longitude
-110.47448°
Altitude
482.511 km
Speed
7.626 km/s
True Right ascension
10h 43m 21s
True Declination
0° 00' 00"
Sunlit
Object was in full shadow at epoch
Visualization orbit readout
Latitude
Unknown
Longitude
Unknown
Altitude
Unknown
Speed
Unknown
Apparent Right ascension
Unknown
Apparent Declination
Unknown
Sunlit
N/A
Visualization observer readout
Local Sidereal Time
23:15:12
Azimuth
Unknown
Elevation
Unknown
Doppler factor
Unknown
Orbital elements
Apogee altitude
486.53 km
Perigee altitude
483.115 km
Semi-major axis
6,862.96 km
Eccentricity
0.00025
Inclination
43.0034°
RAAN
160.8392°
Arg. of periapsis
274.8773°
True anomaly
85.20791°
Mean anomaly
85.1795°
Eccentric anomaly
85.19371°
Mean motion
3.81747 °/min
Orbital period
94.3 mins
BSTAR
0.000034248
Loading maneuver chart data...
Computing Atmospheric mass density...
Loading historical data...
Loading historical data...
Loading historical data...
Loading historical data...
Loading historical data...
Loading historical data...
Loading historical data...

Documentation

Showing up to 5 results
|